Terminal Aerodrome Forecast
Issued by NWS Twin Cities, MN

Home | Current Version | Previous Version | Graphics & Text | Print | Product List | Glossary On
Versions: 1 2 3 4 5 6 7 8 9 10 11 12 13 14 15 16 17 18 19 20 21 22 23 24 25 26 27
188
FTUS43 KMPX 080914 AAA
TAFMSP
TAF AMD
KMSP 080914Z 0809/0912 28013G18KT 5SM -SN OVC020
     FM081600 32018G21KT P6SM -SN OVC025
     FM082200 31015G21KT P6SM BKN025=

USA.gov is the U.S. government's official web portal to all federal, state and local government web resources and services.